International Skating Union - Official Site

Essent ISU World Cup Chelyabinsk
November 18-20, 2011

Draw | Lap Times | Index | World Cup

Referee: Hannu  KOIVU  (FIN)
Starter: Anatoly  KRASHENININ  (RUS)
StartTime: EndTime: Air Temp: Ice Temp: Humidity:
16:55 17:10 12 ℃ -5.9 ℃ 31%
Result Team Pursuit Ladies
Rankings as of Nov 20 2011 6:25PM
Rank: No.: Team: Nation: Time: Behind: Points:
Total 8
1 4 Canada (12) Brittany SCHUSSLER (8) Cindy KLASSEN (9) Christine NESBITT CAN CAN 3:02.070.5 - 19.21 - (19.2)
1.0 - 33.24 - (14.0)
1.5 - 47.26 - (14.0)
2.0 - 1:01.47 - (14.2)
2.5 - 1:16.11 - (14.6)
3.0 - 1:30.92 - (14.8)
3.5 - 1:45.87 - (14.9)
4.0 - 2:00.82 - (14.9)
4.5 - 2:15.97 - (15.1)
5.0 - 2:31.30 - (15.3)
5.5 - 2:46.78 - (15.4)
6.0 - 3:02.07 - (15.2)
100
2 8 Netherlands (62) Ireen WÜST (59) Diane VALKENBURG (56) Marrit LEENSTRA NED NED 3:02.720.5 - 18.88 - (18.8)
1.0 - 32.98 - (14.1)
1.5 - 47.01 - (14.0)
2.0 - 1:01.28 - (14.2)
2.5 - 1:16.06 - (14.7)
3.0 - 1:30.52 - (14.4)
3.5 - 1:45.15 - (14.6)
4.0 - 2:00.16 - (15.0)
4.5 - 2:15.39 - (15.2)
5.0 - 2:30.96 - (15.5)
5.5 - 2:46.61 - (15.6)
6.0 - 3:02.72 - (16.0)
0.65 80
3 7 Russia (82) Yuliya SKOKOVA (78) Yekaterina LOBYSHEVA (81) Yekaterina SHIKHOVA RUS RUS 3:03.370.5 - 18.95 - (18.9)
1.0 - 33.54 - (14.5)
1.5 - 48.28 - (14.7)
2.0 - 1:03.17 - (14.8)
2.5 - 1:18.32 - (15.1)
3.0 - 1:33.00 - (14.6)
3.5 - 1:47.93 - (14.9)
4.0 - 2:03.00 - (15.0)
4.5 - 2:18.16 - (15.1)
5.0 - 2:33.05 - (14.8)
5.5 - 2:48.26 - (15.2)
6.0 - 3:03.37 - (15.2)
1.30 70
4 1 Korea (47) Ju-Youn LEE (49) Seon-Yeong NOH (44) Bo-Reum KIM KOR KOR 3:05.790.5 - 19.34 - (19.3)
1.0 - 33.97 - (14.6)
1.5 - 48.31 - (14.3)
2.0 - 1:02.92 - (14.6)
2.5 - 1:17.42 - (14.5)
3.0 - 1:32.14 - (14.7)
3.5 - 1:47.33 - (15.1)
4.0 - 2:02.81 - (15.4)
4.5 - 2:18.44 - (15.6)
5.0 - 2:34.34 - (15.9)
5.5 - 2:50.05 - (15.7)
6.0 - 3:05.79 - (15.6)
3.72 60
5 6 Germany (22) Monique ANGERMÜLLER (26) Isabell OST (27) Claudia PECHSTEIN GER GER 3:06.52 (1) 0.5 - 19.20 - (19.2)
1.0 - 33.68 - (14.4)
1.5 - 47.93 - (14.2)
2.0 - 1:02.66 - (14.7)
2.5 - 1:17.32 - (14.6)
3.0 - 1:32.14 - (14.8)
3.5 - 1:47.60 - (15.4)
4.0 - 2:03.34 - (15.7)
4.5 - 2:18.96 - (15.6)
5.0 - 2:34.71 - (15.7)
5.5 - 2:50.53 - (15.8)
6.0 - 3:06.52 - (15.9)
4.45 50
6 5 Poland (66) Natalia CZERWONKA (68) Katarzyna WOZNIAK (67) Karolina DOMANSKA-KSYT POL POL 3:06.52 (7) 0.5 - 19.33 - (19.3)
1.0 - 34.12 - (14.7)
1.5 - 48.46 - (14.3)
2.0 - 1:02.91 - (14.4)
2.5 - 1:17.39 - (14.4)
3.0 - 1:32.35 - (14.9)
3.5 - 1:47.81 - (15.4)
4.0 - 2:03.50 - (15.6)
4.5 - 2:19.27 - (15.7)
5.0 - 2:34.90 - (15.6)
5.5 - 2:50.60 - (15.7)
6.0 - 3:06.52 - (15.8)
4.45 45
7 2 Japan (33) Eriko ISHINO (91) Shiho ISHIZAWA (40) Miho TAKAGI JPN JPN 3:06.640.5 - 19.45 - (19.4)
1.0 - 34.24 - (14.7)
1.5 - 49.15 - (14.9)
2.0 - 1:03.90 - (14.7)
2.5 - 1:18.96 - (15.0)
3.0 - 1:33.80 - (14.8)
3.5 - 1:49.08 - (15.2)
4.0 - 1:49.08 - (15.2)
4.5 - 2:20.29 - (15.7)
5.0 - 2:35.71 - (15.4)
5.5 - 2:51.25 - (15.5)
6.0 - 3:06.64 - (15.3)
4.57 40
8 3 USA (90) Jilleanne ROOKARD (88) Maria LAMB (87) Kelly GUNTHER USA USA 3:11.350.5 - 19.52 - (19.5)
1.0 - 34.26 - (14.7)
1.5 - 49.16 - (14.9)
2.0 - 1:04.10 - (14.9)
2.5 - 1:19.35 - (15.2)
3.0 - 1:34.53 - (15.1)
3.5 - 1:49.94 - (15.4)
4.0 - 2:05.31 - (15.3)
4.5 - 2:21.16 - (15.8)
5.0 - 2:37.57 - (16.4)
5.5 - 2:54.37 - (16.8)
6.0 - 3:11.35 - (16.9)
9.28 36